Погода в Понькином

Россия / Курганская область     56°00′13″N   63°20′51″E
темп.,
°C
ветер,
м/с
пор.,
м/с
влажн.,
%
обл.,
%
осадки,
мм/ч
давл.,
гПа
погр.,
м
26 февраля, пт
пт2623:00−24з2210091 0.0 102920
02:00−24зюз239995 0.0 102920
05:00−25зюз239990 0.1 102920
08:00−27зюз239914 0.0 102919
11:00−22ююз23947 0.0 1029148
14:00−19ю349165 0.0 1029295
17:00−21ююв349441 0.0 102881
20:00−25ю479443 0.0 102895
27 февраля, сб
сб2723:00−28ю469526 0.0 102888
02:00−30ююв45943 0.0 102680
05:00−30ююв47941 0.0 1025101
08:00−30ююв49960 0.0 1024152
11:00−25ююв599528 0.0 1023273
14:00−20юв61096100 0.0 1020357
17:00−18юв71195100 0.2 1017522
20:00−17вюв71296100 0.7 1015478
28 февраля, вс
вс2823:00−12вюв61195100 1.3 1012535
02:00−11вюв61194100 0.6 1010521
05:00−10вюв51095100 1.3 1008437
08:00−10в5995100 0.6 1007413
11:00−9в5894100 1.1 1007470
14:00−9всв5893100 0.4 1007504
17:00−9всв5894100 0.8 1007535
20:00−12св599499 0.3 1008321
1 марта, пн
пн123:00−14ссв599599 0.5 1010288
02:00−16с5896100 0.1 1011247
05:00−19с489799 0.1 1013205
08:00−22ссз479895 0.0 1015135
11:00−18ссз469593 0.1 1016285
14:00−16ссз4592100 0.0 1017359
17:00−17сз359496 0.0 1018160
20:00−21зсз239826 0.0 101920
2 марта, вт
вт223:00−22зсз239813 0.0 102020
02:00−23з33980 0.0 101922
05:00−23зюз33990 0.0 101927
08:00−22зюз349713 0.0 101839
11:00−17зюз36907 0.0 1018223
14:00−13юз47890 0.0 1016341
17:00−12ююз48910 0.0 1015271
20:00−16ююз510950 0.0 1014148